Istanbul, Turkey

12:45 PM +03 on April 27, 2018 (GMT +0300)
Ataturk

Weather History for LTBA - September, 2012

Change the Weather History Date:

Tuesday, September 18, 2012

  Actual Average Record
Temperature  
Mean Temperature 74 °F -  
Max Temperature 77 °F 69 °F 91 °F (2017)
Min Temperature 70 °F 57 °F 57 °F (2003)
Cooling Degree Days 8    
Growing Degree Days 24 (Base 50)    
Moisture  
Dew Point 67 °F    
Average Humidity 84    
Maximum Humidity 100    
Minimum Humidity 65    
Precipitation  
Precipitation 0.08 in - - ()
Sea Level Pressure  
Sea Level Pressure 29.92 in    
Wind  
Wind Speed 11 mph ()    
Max Wind Speed 20 mph    
Max Gust Speed 32 mph    
Visibility 5.9 miles    
Events Rain , Thunderstorm    
Averages and records for this station are not official NWS values.
T = Trace of Precipitation, MM = Missing Value Source: Averaged Metar Reports

Daily Weather History Graph

Daily Weather History Graph

Search for Another Location

Airport or City:

Astronomy

Sep. 18, 2012 Rise Set
Actual Time 6:48 AM EEST 7:08 PM EEST
Civil Twilight 6:20 AM EEST 7:35 PM EEST
Nautical Twilight 5:48 AM EEST 8:08 PM EEST
Astronomical Twilight 5:15 AM EEST 8:41 PM EEST
Moon 9:26 AM EEST (9/18) 8:15 PM EEST (9/18)
Length of Visible Light 13h 14m
Length of Day
12h 20m
Waxing Crescent, 7% of the Moon is Illuminated
Sep 18
Waxing Crescent
Sep 22
First Quarter
Sep 30
Full
Oct 8
Last Quarter
Oct 15
New

Hourly Weather History & Observations

Time (EEST) Temp. Dew Point Humidity Pressure Visibility Wind Dir Wind Speed Gust Speed Precip Events Conditions
12:20 AM 73.4 °F 68.0 °F 83% 29.92 in 6.2 mi North 8.1 mph - N/A   Mostly Cloudy
12:50 AM 75.2 °F 66.2 °F 73% 29.92 in 6.2 mi ENE 5.8 mph - N/A   Mostly Cloudy
1:20 AM 73.4 °F 69.8 °F 88% 29.89 in 5.0 mi NNE 12.7 mph - N/A Rain , Thunderstorm Light Thunderstorms and Rain
1:50 AM 73.4 °F 69.8 °F 88% 29.92 in 6.2 mi NE 10.4 mph - N/A   Mostly Cloudy
2:20 AM 71.6 °F 69.8 °F 94% 29.89 in 4.3 mi North 18.4 mph 32.2 mph N/A Rain , Thunderstorm Light Thunderstorms and Rain
2:50 AM 69.8 °F 69.8 °F 100% 29.92 in 6.2 mi North 17.3 mph - N/A   Mostly Cloudy
3:00 AM 71 °F 69 °F 92% 29.91 in 6 mi North 17.3 mph - - Rain Light Rain Showers
3:20 AM 71.6 °F 69.8 °F 94% 29.92 in 6.2 mi NNE 11.5 mph - N/A   Mostly Cloudy
3:50 AM 71.6 °F 69.8 °F 94% 29.92 in 6.2 mi NE 12.7 mph - N/A   Mostly Cloudy
4:20 AM 71.6 °F 68.0 °F 88% 29.89 in 6.2 mi NNE 16.1 mph - N/A   Mostly Cloudy
4:50 AM 69.8 °F 68.0 °F 94% 29.89 in 6.2 mi North 16.1 mph - N/A   Mostly Cloudy
5:20 AM 71.6 °F 68.0 °F 88% 29.92 in 6.2 mi North 9.2 mph - N/A   Mostly Cloudy
5:50 AM 71.6 °F 68.0 °F 88% 29.92 in 4.3 mi North 13.8 mph - N/A Rain , Thunderstorm Light Thunderstorms and Rain
6:20 AM 69.8 °F 69.8 °F 100% 29.92 in 4.3 mi NNE 10.4 mph - N/A Rain , Thunderstorm Light Thunderstorms and Rain
6:50 AM 69.8 °F 68.0 °F 94% 29.89 in 6.2 mi NE 12.7 mph - N/A   Mostly Cloudy
7:20 AM 71.6 °F 68.0 °F 88% 29.92 in 6.2 mi NE 12.7 mph - N/A   Scattered Clouds
7:50 AM 71.6 °F 68.0 °F 88% 29.92 in 6.2 mi NNE 9.2 mph - N/A   Mostly Cloudy
8:20 AM 71.6 °F 68.0 °F 88% 29.92 in 6.2 mi NNE 11.5 mph - N/A   Mostly Cloudy
8:50 AM 71.6 °F 69.8 °F 94% 29.92 in 5.0 mi NE 8.1 mph - N/A Rain Light Rain Showers
9:00 AM 72 °F 69 °F 87% 29.93 in 5 mi NE 8.1 mph - - Rain Light Rain Showers
9:20 AM 71.6 °F 69.8 °F 94% 29.92 in 5.0 mi Variable 4.6 mph - N/A Rain Light Rain Showers
9:50 AM 73.4 °F 69.8 °F 88% 29.95 in 5.0 mi Variable 4.6 mph - N/A Rain Light Rain Showers
10:20 AM 73.4 °F 68.0 °F 83% 29.95 in 6.2 mi NNE 9.2 mph - N/A   Mostly Cloudy
10:50 AM 73.4 °F 68.0 °F 83% 29.95 in 6.2 mi NNE 8.1 mph - N/A   Mostly Cloudy
11:20 AM 73.4 °F 68.0 °F 83% 29.95 in 6.2 mi NNE 9.2 mph - N/A   Mostly Cloudy
11:50 AM 71.6 °F 69.8 °F 94% 29.92 in 4.3 mi NE 9.2 mph - N/A Rain Light Rain Showers
12:20 PM 73.4 °F 69.8 °F 88% 29.92 in 4.3 mi NE 8.1 mph - N/A Rain , Thunderstorm Light Thunderstorms and Rain
12:50 PM 73.4 °F 69.8 °F 88% 29.92 in 6.2 mi NNE 10.4 mph - N/A   Mostly Cloudy
1:20 PM 73.4 °F 69.8 °F 88% 29.92 in 6.2 mi North 9.2 mph - N/A   Mostly Cloudy
1:50 PM 75.2 °F 69.8 °F 83% 29.92 in 6.2 mi Variable 10.4 mph - N/A   Mostly Cloudy
2:20 PM 73.4 °F 69.8 °F 88% 29.92 in 6.2 mi North 13.8 mph - N/A   Mostly Cloudy
2:50 PM 75.2 °F 68.0 °F 78% 29.92 in 6.2 mi North 15.0 mph - N/A   Mostly Cloudy
3:00 PM 74 °F 68 °F 76% 29.92 in 6 mi North 15.0 mph - -   Partly Cloudy
3:20 PM 75.2 °F 66.2 °F 73% 29.92 in 6.2 mi North 12.7 mph - N/A   Mostly Cloudy
3:50 PM 75.2 °F 64.4 °F 69% 29.92 in 6.2 mi North 12.7 mph - N/A   Mostly Cloudy
4:20 PM 75.2 °F 66.2 °F 73% 29.92 in 6.2 mi North 17.3 mph - N/A   Mostly Cloudy
4:50 PM 75.2 °F 64.4 °F 69% 29.89 in 6.2 mi North 18.4 mph - N/A   Mostly Cloudy
5:20 PM 75.2 °F 64.4 °F 69% 29.92 in 6.2 mi North 16.1 mph - N/A   Mostly Cloudy
5:50 PM 75.2 °F 64.4 °F 69% 29.92 in 6.2 mi North 19.6 mph - N/A   Mostly Cloudy
6:20 PM 73.4 °F 64.4 °F 73% 29.92 in 6.2 mi North 18.4 mph - N/A   Mostly Cloudy
6:50 PM 73.4 °F 64.4 °F 73% 29.92 in 6.2 mi North 16.1 mph - N/A   Mostly Cloudy
7:20 PM 71.6 °F 62.6 °F 73% 29.92 in 6.2 mi North 16.1 mph - N/A   Mostly Cloudy
7:50 PM 75.2 °F 62.6 °F 65% 29.92 in 6.2 mi North 15.0 mph - N/A   Mostly Cloudy
8:20 PM 71.6 °F 64.4 °F 78% 29.92 in 6.2 mi North 13.8 mph - N/A   Mostly Cloudy
8:50 PM 71.6 °F 64.4 °F 78% 29.92 in 6.2 mi North 15.0 mph - N/A   Mostly Cloudy
9:00 PM 71 °F 64 °F 73% 29.93 in 6 mi North 15.0 mph - -   Partly Cloudy
9:20 PM 71.6 °F 66.2 °F 83% 29.92 in 6.2 mi North 11.5 mph - N/A   Mostly Cloudy
9:50 PM 71.6 °F 66.2 °F 83% 29.92 in 6.2 mi North 12.7 mph - N/A   Mostly Cloudy
10:20 PM 71.6 °F 66.2 °F 83% 29.92 in 6.2 mi North 11.5 mph - N/A   Mostly Cloudy
10:50 PM 71.6 °F 66.2 °F 83% 29.92 in 6.2 mi North 11.5 mph - N/A   Mostly Cloudy
11:20 PM 71.6 °F 66.2 °F 83% 29.92 in 6.2 mi NNE 11.5 mph - N/A   Mostly Cloudy
11:50 PM 71.6 °F 66.2 °F 83% 29.92 in 6.2 mi North 11.5 mph - N/A   Mostly Cloudy